• In Hungary
  • List of Countries
  • For 7 days
  • Water Temperature
  • Satellite Maps
  • Weather Map
  • News
  • Weather Widgets
  • user-avatar
    Login

    Hourly Weather Delhi

    Today, 23 August, Wednesday

    Time Temperature Precipitation Wind Pressure Humidity
    00:00 +32°C° 1.9 mm 1 mps 732 mmHg 67%
    01:00 +32°C° 1.9 mm 1 mps 732 mmHg 70%
    02:00 +31°C° 1.9 mm 1 mps 732 mmHg 73%
    03:00 +31°C° 0.5 mm 1 mps 732 mmHg 73%
    04:00 +31°C° 0.5 mm 1 mps 732 mmHg 73%
    05:00 +31°C° 0.5 mm 1 mps 732 mmHg 73%
    06:00 +32°C° 0.1 mm 1 mps 733 mmHg 71%
    07:00 +32°C° 0.1 mm 1 mps 733 mmHg 69%
    08:00 +33°C° 0.1 mm 1 mps 734 mmHg 67%
    09:00 +34°C° 0.3 mm 1 mps 734 mmHg 62%
    10:00 +35°C° 0.3 mm 1 mps 734 mmHg 57%
    11:00 +36°C° 0.3 mm 1 mps 734 mmHg 51%
    12:00 +36°C° 0 mm 1 mps 733 mmHg 50%
    13:00 +37°C° 0 mm 1 mps 733 mmHg 48%
    14:00 +37°C° 0 mm 1 mps 732 mmHg 47%
    15:00 +37°C° 0 mm 1 mps 732 mmHg 49%
    16:00 +36°C° 0 mm 1 mps 732 mmHg 52%
    17:00 +37°C° 0 mm 2 mps 732 mmHg 54%
    18:00 +36°C° 0 mm 2 mps 732 mmHg 57%
    19:00 +35°C° 0 mm 2 mps 732 mmHg 61%
    20:00 +34°C° 0 mm 3 mps 732 mmHg 64%
    21:00 +34°C° 0 mm 3 mps 732 mmHg 65%
    22:00 +33°C° 0 mm 3 mps 732 mmHg 67%
    23:00 +33°C° 0 mm 3 mps 732 mmHg 69%

    Tomorrow, 24 August, Thursday

    Time Temperature Precipitation Wind Pressure Humidity
    00:00 +33°C° 0 mm 3 mps 732 mmHg 70%
    01:00 +31°C° 0 mm 3 mps 732 mmHg 71%
    02:00 +31°C° 0 mm 3 mps 732 mmHg 72%
    03:00 +31°C° 0 mm 3 mps 732 mmHg 73%
    04:00 +30°C° 0 mm 2 mps 732 mmHg 74%
    05:00 +30°C° 0 mm 2 mps 732 mmHg 75%
    06:00 +31°C° 0.1 mm 2 mps 732 mmHg 71%
    07:00 +32°C° 0.1 mm 2 mps 733 mmHg 68%
    08:00 +34°C° 0.1 mm 2 mps 733 mmHg 64%
    09:00 +36°C° 0.6 mm 2 mps 733 mmHg 58%
    10:00 +37°C° 0.6 mm 2 mps 733 mmHg 52%
    11:00 +39°C° 0.6 mm 1 mps 733 mmHg 45%
    12:00 +39°C° 0 mm 1 mps 732 mmHg 44%
    13:00 +40°C° 0 mm 1 mps 732 mmHg 42%
    14:00 +40°C° 0 mm 1 mps 731 mmHg 40%
    15:00 +40°C° 0 mm 1 mps 731 mmHg 40%
    16:00 +37°C° 0 mm 0 mps 730 mmHg 40%
    17:00 +37°C° 0 mm 0 mps 730 mmHg 40%
    18:00 +39°C° 0 mm 1 mps 730 mmHg 44%
    19:00 +38°C° 0 mm 2 mps 730 mmHg 47%
    20:00 +36°C° 0 mm 3 mps 730 mmHg 50%
    21:00 +36°C° 0.3 mm 3 mps 730 mmHg 54%
    22:00 +35°C° 0.3 mm 3 mps 730 mmHg 58%
    23:00 +34°C° 0.3 mm 3 mps 731 mmHg 62%

    Day after tomorrow, 25 August, Friday

    Time Temperature Precipitation Wind Pressure Humidity
    00:00 +34°C° 0.4 mm 2 mps 730 mmHg 63%
    01:00 +32°C° 0.4 mm 2 mps 730 mmHg 64%
    02:00 +32°C° 0.4 mm 1 mps 730 mmHg 65%
    03:00 +32°C° 0.1 mm 1 mps 730 mmHg 66%
    04:00 +32°C° 0.1 mm 1 mps 730 mmHg 68%
    05:00 +31°C° 0.1 mm 1 mps 730 mmHg 69%
    06:00 +32°C° 0.3 mm 1 mps 731 mmHg 67%
    07:00 +34°C° 0.3 mm 2 mps 731 mmHg 66%
    08:00 +34°C° 0.3 mm 2 mps 732 mmHg 64%
    09:00 +35°C° 0.4 mm 2 mps 732 mmHg 59%
    10:00 +37°C° 0.4 mm 2 mps 731 mmHg 54%
    11:00 +38°C° 0.4 mm 3 mps 731 mmHg 48%
    12:00 +39°C° 0.4 mm 3 mps 731 mmHg 47%
    13:00 +39°C° 0.4 mm 3 mps 730 mmHg 45%
    14:00 +39°C° 0.4 mm 3 mps 730 mmHg 44%
    15:00 +39°C° 0 mm 3 mps 729 mmHg 45%
    16:00 +39°C° 0 mm 2 mps 729 mmHg 47%
    17:00 +38°C° 0 mm 2 mps 728 mmHg 48%
    18:00 +37°C° 0.1 mm 2 mps 728 mmHg 51%
    19:00 +36°C° 0.1 mm 2 mps 728 mmHg 54%
    20:00 +35°C° 0.1 mm 2 mps 728 mmHg 57%
    21:00 +34°C° 0.2 mm 2 mps 728 mmHg 59%
    22:00 +34°C° 0.2 mm 2 mps 729 mmHg 62%
    23:00 +32°C° 0.2 mm 2 mps 729 mmHg 64%

    26 August, Saturday

    Time Temperature Precipitation Wind Pressure Humidity
    00:00 +32°C° 0.1 mm 2 mps 729 mmHg 65%
    01:00 +32°C° 0.1 mm 1 mps 728 mmHg 66%
    02:00 +32°C° 0.1 mm 1 mps 728 mmHg 67%
    03:00 +31°C° 0.3 mm 1 mps 728 mmHg 68%
    04:00 +31°C° 0.3 mm 1 mps 729 mmHg 69%
    05:00 +31°C° 0.3 mm 1 mps 729 mmHg 70%
    06:00 +32°C° 0 mm 1 mps 729 mmHg 67%
    07:00 +33°C° 0 mm 1 mps 730 mmHg 63%
    08:00 +34°C° 0 mm 1 mps 730 mmHg 60%
    09:00 +36°C° 0 mm 2 mps 730 mmHg 54%
    10:00 +38°C° 0 mm 2 mps 730 mmHg 49%
    11:00 +39°C° 0 mm 2 mps 730 mmHg 43%
    12:00 +40°C° 0 mm 2 mps 729 mmHg 41%
    13:00 +41°C° 0 mm 2 mps 729 mmHg 38%
    14:00 +42°C° 0 mm 2 mps 728 mmHg 36%
    15:00 +41°C° 0 mm 2 mps 728 mmHg 37%
    16:00 +41°C° 0 mm 2 mps 727 mmHg 39%
    17:00 +41°C° 0 mm 2 mps 727 mmHg 40%
    18:00 +40°C° 0 mm 2 mps 727 mmHg 43%
    19:00 +38°C° 0 mm 3 mps 728 mmHg 45%
    20:00 +37°C° 0 mm 3 mps 728 mmHg 48%
    21:00 +37°C° 0.1 mm 3 mps 728 mmHg 51%
    22:00 +36°C° 0.1 mm 4 mps 728 mmHg 54%
    23:00 +35°C° 0.1 mm 4 mps 728 mmHg 56%

    27 August, Sunday

    Time Temperature Precipitation Wind Pressure Humidity
    00:00 +35°C° 0.1 mm 4 mps 728 mmHg 59%
    01:00 +34°C° 0.1 mm 3 mps 728 mmHg 61%
    02:00 +34°C° 0.1 mm 3 mps 728 mmHg 64%
    03:00 +32°C° 1.2 mm 2 mps 729 mmHg 67%
    04:00 +32°C° 1.2 mm 2 mps 729 mmHg 70%
    05:00 +31°C° 1.2 mm 2 mps 729 mmHg 73%
    06:00 +32°C° 0.9 mm 2 mps 729 mmHg 71%
    07:00 +33°C° 0.9 mm 3 mps 730 mmHg 68%
    08:00 +34°C° 0.9 mm 3 mps 730 mmHg 66%
    09:00 +35°C° 0 mm 3 mps 730 mmHg 60%
    10:00 +37°C° 0 mm 4 mps 731 mmHg 54%
    11:00 +38°C° 0 mm 4 mps 731 mmHg 47%
    12:00 +39°C° 0 mm 5 mps 730 mmHg 47%
    13:00 +39°C° 0 mm 5 mps 730 mmHg 47%
    14:00 +40°C° 0 mm 6 mps 729 mmHg 46%
    15:00 +39°C° 0 mm 5 mps 729 mmHg 50%
    16:00 +37°C° 0 mm 5 mps 729 mmHg 54%
    17:00 +35°C° 0 mm 5 mps 729 mmHg 58%
    18:00 +34°C° 0 mm 5 mps 729 mmHg 61%
    19:00 +33°C° 0 mm 4 mps 730 mmHg 65%
    20:00 +32°C° 0 mm 4 mps 730 mmHg 68%
    21:00 +31°C° 0 mm 3 mps 730 mmHg 69%
    22:00 +31°C° 0 mm 3 mps 731 mmHg 69%
    23:00 +31°C° 0 mm 3 mps 731 mmHg 69%

    28 August, Monday

    Time Temperature Precipitation Wind Pressure Humidity
    00:00 +30°C° 0.2 mm 3 mps 731 mmHg 71%
    01:00 +30°C° 0.2 mm 3 mps 730 mmHg 73%
    02:00 +30°C° 0.2 mm 3 mps 730 mmHg 75%
    03:00 +30°C° 0 mm 3 mps 730 mmHg 76%
    04:00 +30°C° 0 mm 3 mps 731 mmHg 77%
    05:00 +29°C° 0 mm 3 mps 731 mmHg 77%
    06:00 +30°C° 0 mm 3 mps 731 mmHg 75%
    07:00 +31°C° 0 mm 3 mps 732 mmHg 72%
    08:00 +32°C° 0 mm 4 mps 732 mmHg 70%
    09:00 +33°C° 0.2 mm 4 mps 732 mmHg 65%
    10:00 +35°C° 0.2 mm 4 mps 732 mmHg 59%
    11:00 +36°C° 0.2 mm 4 mps 732 mmHg 54%
    12:00 +37°C° 0.3 mm 4 mps 731 mmHg 53%
    13:00 +37°C° 0.3 mm 4 mps 731 mmHg 52%
    14:00 +37°C° 0.3 mm 4 mps 730 mmHg 51%
    15:00 +37°C° 0 mm 4 mps 730 mmHg 52%
    16:00 +37°C° 0 mm 3 mps 729 mmHg 53%
    17:00 +37°C° 0 mm 3 mps 729 mmHg 54%
    18:00 +36°C° 0 mm 2 mps 729 mmHg 56%
    19:00 +35°C° 0 mm 2 mps 730 mmHg 58%
    20:00 +35°C° 0 mm 2 mps 730 mmHg 60%
    21:00 +34°C° 0.3 mm 2 mps 730 mmHg 63%
    22:00 +33°C° 0.3 mm 3 mps 730 mmHg 66%
    23:00 +33°C° 0.3 mm 3 mps 731 mmHg 69%
    Show more